"Pseudo-MPEC" for X72065

Created 2021 Jan 20 11:07:38 UT using Find_Orb

Click here for an explanation of pseudo-MPECs

 
 Astrometry: 
     X72065   C2021 01 12@h;^4*0xAVL_H$dkVfP8*(wAstrometrymXredacted;63FRrZ\ND29
     X72065   C2021 01 12RFMS2$1vclick+7gaWS659*mP=m\iMrq%RhereRt+dyp;^.(y?,[D29
     X72065   C2021 01 127uOAB%85for;\b3-A+_s%D7X;explanationRp#[IB5U$LPSmL2`D29

Station data:
(D29) Purple Mountain Observatory, XuYi Station  (N32.734366 E118.463900)
   China.  Observers H. B. Zhao, B. Li, G. Zhaori, R. Q. Hong, L. F. Hu.
   Measurers H. B. Zhao, B. Li. H. Lu, G. Zhaori. 1.04-m f/1.8 Schmidt + CCD.

Orbital elements:  X72065
   Perihelion 2020 Dec 18.574609 +/- 40.7852 TT = 13:47:26 (JD 2459202.074609)
Epoch 2021 Jan 13.0 TT = JDT 2459227.5   Earth MOID: 0.2593   AutoNEOCP
M   5.56964357 +/- 17.703581        (J2000 ecliptic)
n   0.21905832 +/- 0.238998         Peri.  146.67071 +/- 71.691815
a   2.72539551 +/- 1.9521           Node   302.54495 +/- 53.595066
e   0.5570306 +/- 0.251187          Incl.   17.05976 +/- 7.6219564
P   4.50                   H 23.6   G  0.15   U 11.8  SR
q 1.20726659 +/- 0.219083    Q 4.24352443 +/- 42.3954
From 3 observations 2021 Jan. 12 (40.7 min); mean residual 0".11
Residuals in arcseconds: 
210112 D29  .09-  .06-    210112 D29  .18+  .12+    210112 D29  .10-  .08-    

Ephemerides (geocentric):
Date (UTC) HH   RA              Dec         delta   r     elong  mag " sig PA
---- -- -- --  -------------   -----------  ------ ------ -----  --- ---- ---
2021 01 20 11  07 47 17.669   +26 12 57.81  .28425 1.2661 171.9 21.8  48d 179
2021 01 20 12  07 47 16.842   +26 10 04.70  .28439 1.2662 171.9 21.8  48d 179
2021 01 20 13  07 47 16.018   +26 07 11.74  .28453 1.2664 171.9 21.8  48d 179
2021 01 20 14  07 47 15.197   +26 04 18.94  .28468 1.2665 171.9 21.8  48d 179
2021 01 20 15  07 47 14.378   +26 01 26.28  .28482 1.2667 171.9 21.8  48d 179
2021 01 20 16  07 47 13.563   +25 58 33.77  .28496 1.2668 171.9 21.8  48d 179
2021 01 20 17  07 47 12.751   +25 55 41.42  .28510 1.2669 171.9 21.8  48d 179
2021 01 20 18  07 47 11.943   +25 52 49.22  .28525 1.2671 171.9 21.8  49d 178
2021 01 20 19  07 47 11.137   +25 49 57.17  .28539 1.2672 171.9 21.8  50d 176
2021 01 20 20  07 47 10.334   +25 47 05.27  .28553 1.2674 171.9 21.8  50d 175
2021 01 20 21  07 47 09.534   +25 44 13.53  .28568 1.2675 171.9 21.8  51d 175
2021 01 20 22  07 47 08.738   +25 41 21.94  .28582 1.2677 171.9 21.8  51d 175
2021 01 20 23  07 47 07.945   +25 38 30.50  .28597 1.2678 171.9 21.8  51d 175
2021 01 21 00  07 47 07.154   +25 35 39.22  .28611 1.2680 171.9 21.8  51d 176
2021 01 21 01  07 47 06.367   +25 32 48.09  .28626 1.2681 171.9 21.8  51d 176
2021 01 21 02  07 47 05.583   +25 29 57.12  .28641 1.2683 171.9 21.8  51d 176
2021 01 21 03  07 47 04.802   +25 27 06.30  .28655 1.2684 171.9 21.8  52d 177
2021 01 21 04  07 47 04.025   +25 24 15.64  .28670 1.2685 171.9 21.8  52d 178
2021 01 21 05  07 47 03.250   +25 21 25.14  .28685 1.2687 171.9 21.8  53d 178
2021 01 21 06  07 47 02.479   +25 18 34.79  .28700 1.2688 171.9 21.8  53d 179
2021 01 21 07  07 47 01.710   +25 15 44.60  .28715 1.2690 171.9 21.8  53d 179
2021 01 21 08  07 47 00.945   +25 12 54.57  .28730 1.2691 171.8 21.8  53d 179
2021 01 21 09  07 47 00.183   +25 10 04.69  .28745 1.2693 171.8 21.9  53d 179
2021 01 21 10  07 46 59.424   +25 07 14.97  .28759 1.2694 171.8 21.9  53d 179
2021 01 21 11  07 46 58.669   +25 04 25.42  .28775 1.2696 171.8 21.9  53d 179
2021 01 21 12  07 46 57.916   +25 01 36.02  .28790 1.2697 171.8 21.9  54d 179
2021 01 21 13  07 46 57.167   +24 58 46.78  .28805 1.2699 171.8 21.9  54d 179
2021 01 21 14  07 46 56.421   +24 55 57.70  .28820 1.2700 171.8 21.9  54d 179
2021 01 21 15  07 46 55.678   +24 53 08.78  .28835 1.2702 171.8 21.9  54d 179
2021 01 21 16  07 46 54.938   +24 50 20.01  .28850 1.2703 171.8 21.9  54d 179
2021 01 21 17  07 46 54.202   +24 47 31.42  .28865 1.2705 171.7 21.9  54d 179
2021 01 21 18  07 46 53.468   +24 44 42.98  .28881 1.2706 171.7 21.9  54d 179
2021 01 21 19  07 46 52.738   +24 41 54.70  .28896 1.2708 171.7 21.9  54d 179
2021 01 21 20  07 46 52.011   +24 39 06.58  .28912 1.2709 171.7 21.9  54d 179
2021 01 21 21  07 46 51.287   +24 36 18.63  .28927 1.2711 171.7 21.9  54d 179
2021 01 21 22  07 46 50.567   +24 33 30.84  .28942 1.2712 171.7 21.9  54d 179
2021 01 21 23  07 46 49.850   +24 30 43.21  .28958 1.2713 171.7 21.9  54d 175
2021 01 22 00  07 46 49.136   +24 27 55.75  .28973 1.2715 171.6 21.9  54d 175
2021 01 22 01  07 46 48.425   +24 25 08.44  .28989 1.2716 171.6 21.9  54d 175
2021 01 22 02  07 46 47.717   +24 22 21.31  .29005 1.2718 171.6 21.9  54d 175
2021 01 22 03  07 46 47.013   +24 19 34.33  .29020 1.2719 171.6 21.9  54d 175
2021 01 22 04  07 46 46.311   +24 16 47.52  .29036 1.2721 171.6 21.9  54d 175
2021 01 22 05  07 46 45.614   +24 14 00.88  .29052 1.2722 171.6 21.9  54d 175
2021 01 22 06  07 46 44.919   +24 11 14.40  .29068 1.2724 171.5 21.9  54d 175
2021 01 22 07  07 46 44.227   +24 08 28.08  .29083 1.2725 171.5 21.9  54d 175
2021 01 22 08  07 46 43.539   +24 05 41.94  .29099 1.2727 171.5 21.9  54d 175
2021 01 22 09  07 46 42.854   +24 02 55.95  .29115 1.2728 171.5 21.9  54d 175
2021 01 22 10  07 46 42.173   +24 00 10.14  .29131 1.2730 171.5 21.9  54d 175